Content
SEND FEEDBACK

Daily
Averages
Monthly
Summary
United States of America

ST. LOUIS - SAINT LOUIS UNIVERSITY, MISSOURI


Home > North America > United States > Missouri
Elevation: 177 meters     Latitude: 38 38N     Longitude: 090 14W

WEATHER
 
SELECT A DAY
Number of Records: 190,056;   Date Range: 1/1/95 - 11/26/14
 
SHARE

PRINT THIS DATA

[ ← Previous Day ]
WEATHER ALMANAC - 7 JANUARY, 2013
[ Next Day → ]
[ °F ]   °C
Weather ElementAverageHighLow
Temperature0.1 °C5.6 °C (1:53 pm)-6.7 °C (5:53 am)
Dewpoint-4.7 °C-1.7 °C (2:53 pm)-8.3 °C (4:53 am)
Humidity71.3 %89 % (5:53 am)53 % (1:53 pm)
Barometer1026.4 hPa1030.5 hPa (2:53 am)1021.7 hPa (11:53 pm)
Wind Speed10.1 km/h18.5 km/h (9:53 am)
Wind Gust29.6 km/h (10:53 am)
Weather ElementAverage
Visibility14.6 km
Wind DirectionESE (127 °)

Weather ElementTotal
Precipitation---
Heating Degree Days18.9 (Base 18.3)
Averaged from 23 records on 7 January, 2013
WEATHER CONDITIONS BREAKOUT
WIND DIRECTION BREAKOUT
WEATHER BY HOUR - 7 JANUARY, 2013
[ °F ]   °C
Local TimeTemperatureDewpointHumidityBarometerVisibilityWind DirectionWind SpeedGust SpeedPrecipitationEventsConditions
1:53 AM-5.6 °C-7.8 °C85 %1030.1 hPa14.5 kmCalmClear
2:53 AM-5.6 °C-7.8 °C85 %1030.5 hPa14.5 kmCalmClear
4:53 AM-6.1 °C-8.3 °C85 %1029.8 hPa12.9 kmCalmClear
5:53 AM-6.7 °C-8.3 °C89 %1029.8 hPa12.9 kmCalmClear
6:53 AM-5 °C-7.2 °C85 %1029.8 hPa12.9 kmSSE (150°)9.3 km/hClear
7:53 AM-4.4 °C-6.7 °C84 %1030.1 hPa11.3 kmSSE (160°)11.1 km/hClear
8:53 AM-1.7 °C-5 °C78 %1030.1 hPa11.3 kmSouth (170°)13 km/hClear
9:53 AM0 °C-4.4 °C73 %1030.1 hPa12.9 kmSouth (170°)18.5 km/hClear
10:53 AM1.7 °C-4.4 °C64 %1029.1 hPa9.7 kmSouth (170°)16.7 km/h29.6 km/hHaze
11:53 AM3.3 °C-3.3 °C62 %1028.1 hPa16.1 kmSouth (170°)16.7 km/hClear
12:53 PM4.4 °C-3.3 °C58 %1026.1 hPa16.1 kmSouth (180°)13 km/hClear
1:53 PM5.6 °C-3.3 °C53 %1025.1 hPa16.1 kmSouth (190°)13 km/h27.8 km/hClear
2:53 PM5.6 °C-1.7 °C60 %1025.1 hPa16.1 kmSSE (150°)16.7 km/hClear
3:53 PM4.4 °C-2.8 °C60 %1024.4 hPa16.1 kmSSE (150°)13 km/hClear
4:53 PM2.8 °C-2.8 °C67 %1024.4 hPa16.1 kmSSE (150°)9.3 km/hClear
5:53 PM2.2 °C-2.8 °C70 %1023.4 hPa16.1 kmSSE (150°)14.8 km/hClear
6:53 PM1.7 °C-3.3 °C70 %1023.4 hPa16.1 kmSSE (160°)11.1 km/hClear
7:53 PM1.7 °C-3.9 °C67 %1022.7 hPa16.1 kmSSE (160°)13 km/hClear
8:52 PM1 °C-4 °C70 %1022.4 hPa16.1 kmSSE (160°)9.3 km/hClear
8:53 PM1.1 °C-4.4 °C67 %1022.7 hPa16.1 kmVariable7.4 km/hClear
9:53 PM1.1 °C-4.4 °C67 %1022.7 hPa16.1 kmSSE (160°)11.1 km/hClear
10:53 PM0 °C-4.4 °C73 %1022.4 hPa16.1 kmSSE (160°)7.4 km/hClear
11:53 PM0 °C-5 °C69 %1021.7 hPa16.1 kmSSE (160°)7.4 km/hClear
Hourly data recorded from KCPS, located 0 kilometers away from St. Louis - Saint Louis University, Missouri







STORIES FROM OUR PARTNERS